Back to catalog

ONEWEB-0386

AliveCommunicationsPO
NORAD 49312·PAYLOAD·🇬🇧 United Kingdom

Launched Oct 14, 2021 from Vostochny Cosmodrome

Loading…

Next Passes (next 24 hours)

TLE

FreshSource: CelesTrak SupGP

Epoch: Sep 14, 2026, 20:37 UTC

1 49312C 21090AK  26257.85954120  .00010437  00000+0  25702-1 0  2575
2 49312  87.9139 256.5458 0002253  91.6695 305.8187 13.20761917    11

Track ONEWEB-0386 in real time with AllMySat

Download on the App Store